Location: Bothwell
(42.3833°S, 147.0000°E)
Time: 00:50:56
(UTC+10:00)

DOVE 4 - Visible Passes

Search period start: 26 September 2022 00:00
Search period end: 06 October 2022 01:00
Orbit: 585 x 798 km, 97.8° (Epoch: 25 September)

Date Brightness Start Highest point End Pass type
(mag) Time Alt. Az. Time Alt. Az. Time Alt. Az.
26 Sep ? 21:59:23 14° S 21:59:23 14° S 22:00:15 10° S visible
27 Sep ? 22:39:15 15° S 22:39:15 15° S 22:40:12 10° S visible
28 Sep ? 21:40:27 14° SSE 21:40:27 14° SSE 21:41:23 10° SSE visible
28 Sep ? 23:19:07 13° SSW 23:19:07 13° SSW 23:19:37 10° SSW visible
29 Sep ? 22:20:19 17° S 22:20:19 17° S 22:21:36 10° S visible
30 Sep ? 21:21:31 12° SSE 21:21:31 12° SSE 21:22:16 10° SSE visible
30 Sep ? 23:00:11 16° SSW 23:00:11 16° SSW 23:01:16 10° SSW visible
01 Oct ? 22:01:23 18° SSE 22:01:23 18° SSE 22:02:54 10° S visible
01 Oct ? 23:40:03 11° SW 23:40:03 11° SW 23:40:20 10° SSW visible
02 Oct ? 23:41:15 19° S 23:41:15 19° S 23:42:46 10° S visible
03 Oct ? 22:42:27 17° SSE 22:42:27 17° SSE 22:44:01 10° SSE visible
04 Oct ? 00:21:07 15° SSW 00:21:07 15° SSW 00:22:07 10° SSW visible
04 Oct ? 23:22:19 22° S 23:22:19 22° S 23:24:10 10° S visible
05 Oct ? 22:23:31 15° SE 22:23:31 15° SE 22:24:56 10° SSE visible
06 Oct ? 00:02:10 20° SSW 00:02:10 20° SSW 00:03:45 10° SSW visible
